Time,TemperatureF,DewpointF,PressureIn,WindDirection,WindDirectionDegrees,WindSpeedMPH,WindSpeedGustMPH,Humidity,HourlyPrecipIn,Conditions,Clouds,dailyrainin,SoftwareType,DateUTC
2013-04-23 00:03:00,53.0,27.0,-100.00,ESE,112,1.0,10.0,33,0.00,,,-99.99,,2013-04-23 04:03:00,
2013-04-23 00:13:00,53.0,25.0,-100.00,SSE,148,2.0,10.0,32,0.00,,,-99.99,,2013-04-23 04:13:00,
2013-04-23 00:23:00,53.0,25.0,-100.00,ESE,120,2.0,10.0,32,0.00,,,-99.99,,2013-04-23 04:23:00,
2013-04-23 00:33:00,53.0,25.0,-100.00,SE,124,2.0,10.0,32,0.00,,,-99.99,,2013-04-23 04:33:00,
2013-04-23 00:43:00,52.0,25.0,-100.00,East,101,2.0,10.0,33,0.00,,,-99.99,,2013-04-23 04:43:00,
2013-04-23 00:53:00,52.0,25.0,-100.00,SSE,156,2.0,10.0,32,0.00,,,-99.99,,2013-04-23 04:53:00,
2013-04-23 01:02:00,51.0,25.0,-100.00,SE,129,2.0,10.0,34,0.00,,,-99.99,,2013-04-23 05:02:00,
2013-04-23 01:12:00,51.0,23.0,-100.00,SSE,158,2.0,10.0,33,0.00,,,-99.99,,2013-04-23 05:12:00,
2013-04-23 01:22:00,51.0,25.0,-100.00,SE,144,2.0,10.0,36,0.00,,,-99.99,,2013-04-23 05:22:00,
2013-04-23 01:32:00,51.0,27.0,-100.00,South,182,2.0,10.0,37,0.00,,,-99.99,,2013-04-23 05:32:00,
2013-04-23 01:42:00,50.0,25.0,-100.00,SE,132,1.0,10.0,37,0.00,,,-99.99,,2013-04-23 05:42:00,
2013-04-23 01:52:00,50.0,27.0,-100.00,SSE,149,1.0,10.0,38,0.00,,,-99.99,,2013-04-23 05:52:00,
2013-04-23 02:02:00,50.0,27.0,-100.00,ESE,112,1.0,10.0,40,0.00,,,-99.99,,2013-04-23 06:02:00,
2013-04-23 02:12:00,50.0,28.0,-100.00,SSE,159,1.0,10.0,42,0.00,,,-99.99,,2013-04-23 06:12:00,
2013-04-23 02:21:00,48.0,27.0,-100.00,SE,135,1.0,10.0,42,0.00,,,-99.99,,2013-04-23 06:21:00,
2013-04-23 02:33:00,49.0,28.0,-100.00,ESE,114,1.0,10.0,44,0.00,,,-99.99,,2013-04-23 06:33:00,
2013-04-23 02:42:00,48.0,28.0,-100.00,SE,132,0.0,10.0,45,0.00,,,-99.99,,2013-04-23 06:42:00,
2013-04-23 02:52:00,48.0,28.0,-100.00,ESE,122,1.0,10.0,45,0.00,,,-99.99,,2013-04-23 06:52:00,
2013-04-23 03:02:00,47.0,28.0,-100.00,SE,135,1.0,10.0,47,0.00,,,-99.99,,2013-04-23 07:02:00,
2013-04-23 03:11:00,47.0,28.0,-100.00,SE,145,0.0,10.0,47,0.00,,,-99.99,,2013-04-23 07:11:00,
2013-04-23 03:21:00,47.0,30.0,-100.00,ESE,112,1.0,10.0,49,0.00,,,-99.99,,2013-04-23 07:21:00,
2013-04-23 03:32:00,47.0,30.0,-100.00,ESE,110,1.0,10.0,50,0.00,,,-99.99,,2013-04-23 07:32:00,
2013-04-23 03:42:00,46.0,30.0,-100.00,SSE,165,0.0,10.0,50,0.00,,,-99.99,,2013-04-23 07:42:00,
2013-04-23 03:52:00,46.0,28.0,-100.00,ESE,110,0.0,10.0,50,0.00,,,-99.99,,2013-04-23 07:52:00,
2013-04-23 04:02:00,46.0,30.0,-100.00,ESE,111,1.0,1.0,50,0.00,,,-99.99,,2013-04-23 08:02:00,
2013-04-23 04:11:00,46.0,30.0,-100.00,South,176,1.0,2.0,51,0.00,,,-99.99,,2013-04-23 08:11:00,
2013-04-23 04:21:00,45.0,30.0,-100.00,SE,142,1.0,2.0,53,0.00,,,-99.99,,2013-04-23 08:21:00,
2013-04-23 04:32:00,45.0,30.0,-100.00,SSE,159,1.0,2.0,53,0.00,,,-99.99,,2013-04-23 08:32:00,
2013-04-23 04:42:00,45.0,30.0,-100.00,SSE,165,1.0,2.0,54,0.00,,,-99.99,,2013-04-23 08:42:00,
2013-04-23 04:52:00,45.0,30.0,-100.00,South,172,1.0,2.0,55,0.00,,,-99.99,,2013-04-23 08:52:00,
2013-04-23 05:02:00,45.0,30.0,-100.00,ESE,112,1.0,2.0,56,0.00,,,-99.99,,2013-04-23 09:02:00,
2013-04-23 05:11:00,44.0,30.0,-100.00,SSE,152,0.0,2.0,56,0.00,,,-99.99,,2013-04-23 09:11:00,
2013-04-23 05:21:00,44.0,32.0,-100.00,SE,136,0.0,2.0,58,0.00,,,-99.99,,2013-04-23 09:21:00,
2013-04-23 05:33:00,44.0,32.0,-100.00,ESE,117,0.0,2.0,59,0.00,,,-99.99,,2013-04-23 09:33:00,
2013-04-23 05:43:00,43.0,30.0,-100.00,SE,141,1.0,2.0,59,0.00,,,-99.99,,2013-04-23 09:43:00,
2013-04-23 05:52:00,43.0,32.0,-100.00,SE,141,0.0,2.0,60,0.00,,,-99.99,,2013-04-23 09:52:00,
2013-04-23 06:03:00,43.0,32.0,-100.00,South,179,1.0,2.0,60,0.00,,,-99.99,,2013-04-23 10:03:00,
2013-04-23 06:13:00,44.0,32.0,-100.00,ESE,108,1.0,2.0,60,0.00,,,-99.99,,2013-04-23 10:13:00,
2013-04-23 06:23:00,44.0,32.0,-100.00,SE,135,1.0,2.0,60,0.00,,,-99.99,,2013-04-23 10:23:00,
2013-04-23 06:33:00,43.0,32.0,-100.00,SSE,168,0.0,2.0,63,0.00,,,-99.99,,2013-04-23 10:33:00,
2013-04-23 06:42:00,43.0,32.0,-100.00,ESE,118,1.0,2.0,62,0.00,,,-99.99,,2013-04-23 10:42:00,
2013-04-23 06:52:00,43.0,32.0,-100.00,SE,136,1.0,2.0,63,0.00,,,-99.99,,2013-04-23 10:52:00,
2013-04-23 07:03:00,43.0,32.0,-100.00,SSW,204,1.0,2.0,64,0.00,,,-99.99,,2013-04-23 11:03:00,
2013-04-23 07:12:00,43.0,32.0,-100.00,SE,145,1.0,2.0,64,0.00,,,-99.99,,2013-04-23 11:12:00,
2013-04-23 07:21:00,42.0,32.0,-100.00,SE,128,1.0,2.0,66,0.00,,,-99.99,,2013-04-23 11:21:00,
2013-04-23 07:32:00,43.0,32.0,-100.00,SSE,165,1.0,2.0,64,0.00,,,-99.99,,2013-04-23 11:32:00,
2013-04-23 07:43:00,43.0,32.0,-100.00,SE,129,2.0,2.0,64,0.00,,,-99.99,,2013-04-23 11:43:00,
2013-04-23 07:52:00,43.0,32.0,-100.00,SE,129,1.0,2.0,63,0.00,,,-99.99,,2013-04-23 11:52:00,
2013-04-23 08:02:00,44.0,32.0,-100.00,SSE,158,2.0,2.0,63,0.00,,,-99.99,,2013-04-23 12:02:00,
2013-04-23 08:12:00,45.0,32.0,-100.00,SE,144,1.0,2.0,62,0.00,,,-99.99,,2013-04-23 12:12:00,
2013-04-23 08:22:00,45.0,32.0,-100.00,WSW,238,1.0,2.0,62,0.00,,,-99.99,,2013-04-23 12:22:00,
2013-04-23 08:32:00,46.0,32.0,-100.00,SSE,148,2.0,4.0,59,0.00,,,-99.99,,2013-04-23 12:32:00,
2013-04-23 08:42:00,47.0,32.0,-100.00,SSE,159,2.0,4.0,56,0.00,,,-99.99,,2013-04-23 12:42:00,
2013-04-23 08:52:00,48.0,32.0,-100.00,East,101,2.0,4.0,55,0.00,,,-99.99,,2013-04-23 12:52:00,
2013-04-23 09:01:00,49.0,32.0,-100.00,SSE,158,2.0,4.0,54,0.00,,,-99.99,,2013-04-23 13:01:00,
2013-04-23 09:12:00,49.0,32.0,-100.00,SE,139,2.0,4.0,51,0.00,,,-99.99,,2013-04-23 13:12:00,
2013-04-23 09:22:00,50.0,32.0,-100.00,South,187,4.0,4.0,51,0.00,,,-99.99,,2013-04-23 13:22:00,
2013-04-23 09:32:00,52.0,32.0,-100.00,SSW,208,3.0,4.0,50,0.00,,,-99.99,,2013-04-23 13:32:00,
2013-04-23 09:42:00,53.0,34.0,-100.00,SSE,168,3.0,4.0,49,0.00,,,-99.99,,2013-04-23 13:42:00,
2013-04-23 09:52:00,54.0,34.0,-100.00,South,175,3.0,4.0,49,0.00,,,-99.99,,2013-04-23 13:52:00,
2013-04-23 10:02:00,55.0,34.0,-100.00,SE,127,2.0,4.0,46,0.00,,,-99.99,,2013-04-23 14:02:00,
2013-04-23 10:11:00,56.0,34.0,-100.00,SSE,152,3.0,4.0,44,0.00,,,-99.99,,2013-04-23 14:11:00,
2013-04-23 10:22:00,58.0,34.0,-100.00,SSE,166,4.0,4.0,41,0.00,,,-99.99,,2013-04-23 14:22:00,
2013-04-23 10:32:00,58.0,34.0,-100.00,SSW,192,4.0,4.0,40,0.00,,,-99.99,,2013-04-23 14:32:00,
2013-04-23 10:42:00,58.0,34.0,-100.00,SE,138,6.0,8.0,40,0.00,,,-99.99,,2013-04-23 14:42:00,
2013-04-23 10:52:00,60.0,34.0,-100.00,SSW,192,4.0,8.0,40,0.00,,,-99.99,,2013-04-23 14:52:00,
2013-04-23 11:01:00,60.0,34.0,-100.00,SSE,153,4.0,8.0,38,0.00,,,-99.99,,2013-04-23 15:01:00,
2013-04-23 11:12:00,61.0,34.0,-100.00,South,190,4.0,8.0,37,0.00,,,-99.99,,2013-04-23 15:12:00,
2013-04-23 11:21:00,62.0,34.0,-100.00,SSW,193,4.0,8.0,37,0.00,,,-99.99,,2013-04-23 15:21:00,
2013-04-23 11:32:00,62.0,32.0,-100.00,South,186,4.0,8.0,34,0.00,,,-99.99,,2013-04-23 15:32:00,
2013-04-23 11:43:00,62.0,34.0,-100.00,WSW,241,4.0,8.0,37,0.00,,,-99.99,,2013-04-23 15:43:00,
2013-04-23 11:53:00,64.0,34.0,-100.00,SSE,168,5.0,8.0,34,0.00,,,-99.99,,2013-04-23 15:53:00,
2013-04-23 12:03:00,65.0,36.0,-100.00,SSW,196,3.0,8.0,34,0.00,,,-99.99,,2013-04-23 16:03:00,
2013-04-23 12:12:00,66.0,36.0,-100.00,SSW,199,4.0,8.0,34,0.00,,,-99.99,,2013-04-23 16:12:00,
2013-04-23 12:23:00,66.0,36.0,-100.00,East,101,6.0,8.0,34,0.00,,,-99.99,,2013-04-23 16:23:00,
2013-04-23 12:34:00,67.0,36.0,-100.00,SSE,162,4.0,8.0,33,0.00,,,-99.99,,2013-04-23 16:34:00,
2013-04-23 12:43:00,67.0,36.0,-100.00,SW,218,6.0,8.0,33,0.00,,,-99.99,,2013-04-23 16:43:00,
2013-04-23 12:52:00,69.0,37.0,-100.00,South,182,3.0,8.0,33,0.00,,,-99.99,,2013-04-23 16:52:00,
2013-04-23 13:02:00,69.0,34.0,-100.00,South,177,5.0,10.0,29,0.00,,,-99.99,,2013-04-23 17:02:00,
2013-04-23 13:12:00,69.0,36.0,-100.00,West,265,6.0,10.0,29,0.00,,,-99.99,,2013-04-23 17:12:00,
2013-04-23 13:22:00,70.0,34.0,-100.00,South,179,7.0,10.0,28,0.00,,,-99.99,,2013-04-23 17:22:00,
2013-04-23 13:33:00,70.0,36.0,-100.00,West,262,8.0,10.0,29,0.00,,,-99.99,,2013-04-23 17:33:00,
2013-04-23 13:42:00,71.0,34.0,-100.00,SE,146,8.0,10.0,27,0.00,,,-99.99,,2013-04-23 17:42:00,
2013-04-23 13:53:00,72.0,36.0,-100.00,SSE,165,8.0,10.0,27,0.00,,,-99.99,,2013-04-23 17:53:00,
2013-04-23 14:02:00,72.0,36.0,-100.00,SSE,149,6.0,10.0,28,0.00,,,-99.99,,2013-04-23 18:02:00,
2013-04-23 14:12:00,73.0,37.0,-100.00,South,177,5.0,10.0,29,0.00,,,-99.99,,2013-04-23 18:12:00,
2013-04-23 14:22:00,73.0,37.0,-100.00,SSW,213,5.0,10.0,29,0.00,,,-99.99,,2013-04-23 18:22:00,
2013-04-23 14:32:00,73.0,34.0,-100.00,West,269,6.0,10.0,25,0.00,,,-99.99,,2013-04-23 18:32:00,
2013-04-23 14:42:00,74.0,37.0,-100.00,SW,225,8.0,12.0,27,0.00,,,-99.99,,2013-04-23 18:42:00,
2013-04-23 14:52:00,74.0,37.0,-100.00,WSW,247,8.0,12.0,27,0.00,,,-99.99,,2013-04-23 18:52:00,
2013-04-23 15:02:00,74.0,34.0,-100.00,SSW,200,7.0,12.0,25,0.00,,,-99.99,,2013-04-23 19:02:00,
2013-04-23 15:11:00,74.0,36.0,-100.00,SSW,201,7.0,14.0,25,0.00,,,-99.99,,2013-04-23 19:11:00,
2013-04-23 15:22:00,72.0,36.0,-100.00,South,186,6.0,14.0,27,0.00,,,-99.99,,2013-04-23 19:22:00,
2013-04-23 15:32:00,72.0,32.0,-100.00,SSW,208,7.0,14.0,24,0.00,,,-99.99,,2013-04-23 19:32:00,
2013-04-23 15:42:00,73.0,32.0,-100.00,SW,235,5.0,14.0,24,0.00,,,-99.99,,2013-04-23 19:42:00,
2013-04-23 15:52:00,72.0,34.0,-100.00,SW,227,7.0,14.0,25,0.00,,,-99.99,,2013-04-23 19:52:00,
2013-04-23 16:02:00,72.0,34.0,-100.00,SSW,211,7.0,14.0,25,0.00,,,-99.99,,2013-04-23 20:02:00,
2013-04-23 16:11:00,72.0,36.0,-100.00,WSW,258,5.0,14.0,27,0.00,,,-99.99,,2013-04-23 20:11:00,
2013-04-23 16:22:00,72.0,34.0,-100.00,SW,221,9.0,14.0,25,0.00,,,-99.99,,2013-04-23 20:22:00,
2013-04-23 16:32:00,73.0,34.0,-100.00,SW,216,6.0,14.0,25,0.00,,,-99.99,,2013-04-23 20:32:00,
2013-04-23 16:42:00,72.0,34.0,-100.00,WSW,242,4.0,14.0,25,0.00,,,-99.99,,2013-04-23 20:42:00,
2013-04-23 16:52:00,73.0,34.0,-100.00,SW,223,8.0,14.0,25,0.00,,,-99.99,,2013-04-23 20:52:00,
2013-04-23 17:02:00,74.0,37.0,-100.00,SW,230,7.0,14.0,27,0.00,,,-99.99,,2013-04-23 21:02:00,
2013-04-23 17:12:00,73.0,34.0,-100.00,WSW,251,7.0,14.0,25,0.00,,,-99.99,,2013-04-23 21:12:00,
2013-04-23 17:22:00,72.0,36.0,-100.00,WSW,245,6.0,14.0,27,0.00,,,-99.99,,2013-04-23 21:22:00,
2013-04-23 17:33:00,72.0,36.0,-100.00,WSW,249,7.0,14.0,27,0.00,,,-99.99,,2013-04-23 21:33:00,
2013-04-23 17:43:00,72.0,36.0,-100.00,WSW,245,9.0,14.0,27,0.00,,,-99.99,,2013-04-23 21:43:00,
2013-04-23 17:52:00,71.0,36.0,-100.00,SSW,200,9.0,14.0,28,0.00,,,-99.99,,2013-04-23 21:52:00,
2013-04-23 18:03:00,71.0,34.0,-100.00,South,173,8.0,14.0,27,0.00,,,-99.99,,2013-04-23 22:03:00,
2013-04-23 18:12:00,71.0,36.0,-100.00,SSW,197,7.0,14.0,28,0.00,,,-99.99,,2013-04-23 22:12:00,
2013-04-23 18:22:00,71.0,37.0,-100.00,SW,232,6.0,14.0,29,0.00,,,-99.99,,2013-04-23 22:22:00,
2013-04-23 18:33:00,71.0,36.0,-100.00,SW,228,7.0,14.0,29,0.00,,,-99.99,,2013-04-23 22:33:00,
2013-04-23 18:42:00,71.0,36.0,-100.00,South,186,9.0,14.0,29,0.00,,,-99.99,,2013-04-23 22:42:00,
2013-04-23 18:52:00,71.0,36.0,-100.00,SSW,208,8.0,14.0,28,0.00,,,-99.99,,2013-04-23 22:52:00,
2013-04-23 19:03:00,71.0,37.0,-100.00,SSW,208,6.0,14.0,31,0.00,,,-99.99,,2013-04-23 23:03:00,
2013-04-23 19:12:00,71.0,36.0,-100.00,WSW,256,4.0,14.0,29,0.00,,,-99.99,,2013-04-23 23:12:00,
2013-04-23 19:22:00,71.0,36.0,-100.00,SE,142,8.0,14.0,28,0.00,,,-99.99,,2013-04-23 23:22:00,
2013-04-23 19:32:00,71.0,36.0,-100.00,SSW,208,6.0,14.0,29,0.00,,,-99.99,,2013-04-23 23:32:00,
2013-04-23 19:42:00,70.0,36.0,-100.00,SW,217,5.0,14.0,29,0.00,,,-99.99,,2013-04-23 23:42:00,
2013-04-23 19:52:00,70.0,37.0,-100.00,South,183,4.0,14.0,31,0.00,,,-99.99,,2013-04-23 23:52:00,
2013-04-23 20:02:00,69.0,37.0,-100.00,SSE,153,3.0,14.0,31,0.00,,,-99.99,,2013-04-24 00:02:00,
2013-04-23 20:11:00,69.0,37.0,-100.00,South,170,3.0,14.0,31,0.00,,,-99.99,,2013-04-24 00:11:00,
2013-04-23 20:22:00,70.0,37.0,-100.00,South,175,4.0,14.0,31,0.00,,,-99.99,,2013-04-24 00:22:00,
2013-04-23 20:32:00,69.0,37.0,-100.00,South,176,4.0,14.0,32,0.00,,,-99.99,,2013-04-24 00:32:00,
2013-04-23 20:42:00,68.0,37.0,-100.00,SSE,168,2.0,14.0,33,0.00,,,-99.99,,2013-04-24 00:42:00,
2013-04-23 20:52:00,68.0,36.0,-100.00,SE,138,2.0,14.0,32,0.00,,,-99.99,,2013-04-24 00:52:00,
2013-04-23 21:02:00,67.0,36.0,-100.00,SSE,148,1.0,14.0,33,0.00,,,-99.99,,2013-04-24 01:02:00,
2013-04-23 21:11:00,67.0,37.0,-100.00,South,169,1.0,14.0,34,0.00,,,-99.99,,2013-04-24 01:11:00,
2013-04-23 21:21:00,67.0,36.0,-100.00,SSE,160,1.0,14.0,34,0.00,,,-99.99,,2013-04-24 01:21:00,
2013-04-23 21:32:00,66.0,36.0,-100.00,South,190,1.0,14.0,34,0.00,,,-99.99,,2013-04-24 01:32:00,
2013-04-23 21:42:00,66.0,37.0,-100.00,SSE,151,2.0,14.0,36,0.00,,,-99.99,,2013-04-24 01:42:00,
2013-04-23 21:52:00,66.0,37.0,-100.00,South,170,2.0,14.0,36,0.00,,,-99.99,,2013-04-24 01:52:00,
2013-04-23 22:02:00,66.0,37.0,-100.00,South,170,2.0,14.0,36,0.00,,,-99.99,,2013-04-24 02:02:00,
2013-04-23 22:19:00,65.0,37.0,-100.00,SSE,162,1.0,14.0,37,0.00,,,-99.99,,2013-04-24 02:19:00,
2013-04-23 22:30:00,65.0,37.0,-100.00,South,175,1.0,14.0,37,0.00,,,-99.99,,2013-04-24 02:30:00,
2013-04-23 22:40:00,65.0,37.0,-100.00,SSE,166,1.0,14.0,37,0.00,,,-99.99,,2013-04-24 02:40:00,
2013-04-23 22:49:00,64.0,37.0,-100.00,SSE,166,1.0,14.0,38,0.00,,,-99.99,,2013-04-24 02:49:00,
2013-04-23 22:56:00,64.0,37.0,-100.00,SSE,165,0.0,14.0,38,0.00,,,-99.99,,2013-04-24 02:56:00,
2013-04-23 23:18:00,63.0,37.0,-100.00,SSE,166,1.0,14.0,40,0.00,,,-99.99,,2013-04-24 03:18:00,
2013-04-23 23:30:00,63.0,37.0,-100.00,SSE,159,1.0,14.0,41,0.00,,,-99.99,,2013-04-24 03:30:00,
2013-04-23 23:42:00,63.0,37.0,-100.00,SSW,203,1.0,14.0,40,0.00,,,-99.99,,2013-04-24 03:42:00,
2013-04-23 23:52:00,63.0,37.0,-100.00,SSW,203,1.0,14.0,40,0.00,,,-99.99,,2013-04-24 03:52:00,